QPF
0.00 0.00 0.00 0.00 0.00 0.00 0.00 0.00 0.00 0.00 0.00 0.00 0.00 0.00 0.00 0.00 0.00 0.00 0.00 0.00 0.00 0.00 0.00 0.00 0.00 0.00 0.00 0.00 0.00 0.00 0.00 0.00 0.00 0.00 0.00 0.00 0.00 0.00 0.00 0.00 0.00 0.00 0.00 0.00
0.00 0.00 0.00 0.00 0.00 0.00 0.00 0.00 0.00 0.00 0.00 0.00 0.00 0.00 0.00 0.00 0.00 0.00 0.00 0.00 0.00 0.00 0.00 0.00 0.00 0.00 0.00 0.00 0.00 0.00 0.00 0.00 0.00 0.00 0.00 0.00 0.00 0.00 0.00 0.00 0.00 0.00 0.00 0.00
0.00 0.00 0.00 0.00 0.00 0.00 0.00 0.00 0.00 0.00 0.00 0.00 0.00 0.00 0.00 0.00 0.00 0.00 0.00 0.00 0.00 0.00 0.00 0.00 0.00 0.00 0.00 0.00 0.00 0.00 0.00 0.00 0.00 0.00 0.00 0.00 0.00 0.00 0.00 0.00 0.00 0.00 0.00 0.00
0.00 0.00 0.00 0.00 0.00 0.00 0.00 0.00 0.00 0.00 0.00 0.00 0.00 0.00 0.00 0.00 0.00 0.00 0.00 0.00 0.00 0.00 0.00 0.00 0.00 0.00 0.00 0.00 0.00 0.00 0.00 0.00 0.00 0.00 0.00 0.00 0.00 0.00 0.00 0.00 0.00 0.00 0.00 0.00
0.00 0.00 0.00 0.00 0.00 0.00 0.00 0.00 0.00 0.00 0.00 0.00 0.00 0.00 0.00 0.00 0.00 0.00 0.00 0.00 0.00 0.00 0.00 0.00 0.00 0.00 0.00 0.00 0.00 0.00 0.00 0.00 0.00 0.00 0.00 0.00 0.00 0.00 0.00 0.00 0.00 0.00 0.00 0.00
0.00 0.00 0.00 0.00 0.00 0.00 0.00 0.00 0.00 0.00 0.00 0.01 0.00 0.01 0.00 0.00 0.00 0.00 0.00 0.00 0.00 0.00 0.00 0.00 0.00 0.00 0.00 0.00 0.00 0.00 0.00 0.00 0.00 0.00 0.00 0.00 0.00 0.00 0.00 0.00 0.00 0.00 0.00 0.00
0.00 0.00 0.00 0.00 0.00 0.00 0.00 0.00 0.01 0.01 0.01 0.00 0.00 0.00 0.00 0.00 0.00 0.00 0.00 0.00 0.00 0.00 0.00 0.00 0.00 0.00 0.00 0.00 0.00 0.00 0.00 0.00 0.00 0.00 0.00 0.00 0.00 0.00 0.00 0.00 0.00 0.00 0.00 0.00
0.01 0.00 0.00 0.00 0.00 0.00 0.00 0.00 0.00 0.00 0.00 0.00 0.00 0.00 0.00 0.00 0.00 0.00 0.00 0.00 0.00 0.00 0.00 0.00 0.00 0.00 0.00 0.00 0.00 0.00 0.00 0.00 0.00 0.00 0.00 0.00 0.00 0.00 0.00 0.00 0.00 0.00 0.00 0.00
0.02 0.01 0.00 0.00 0.00 0.00 0.00 0.01 0.00 0.02 0.01 0.01 0.00 0.00 0.00 0.00 0.00 0.00 0.00 0.00 0.00 0.00 0.00 0.00 0.00 0.00 0.00 0.00 0.00 0.00 0.00 0.00 0.00 0.00 0.00 0.00 0.00 0.00 0.00 0.00 0.00 0.00 0.00 0.00
0.04 0.03 0.00 0.00 0.00 0.00 0.00 0.00 0.02 0.04 0.01 0.02 0.00 0.00 0.00 0.00 0.00 0.00 0.00 0.00 0.00 0.00 0.00 0.00 0.00 0.00 0.00 0.00 0.00 0.00 0.00 0.00 0.00 0.00 0.00 0.00 0.00 0.00 0.00 0.00 0.00 0.00 0.00 0.00
0.03 0.03 0.01 0.02 0.01 0.00 0.01 0.01 0.02 0.02 0.02 0.02 0.02 0.01 0.00 0.00 0.00 0.00 0.00 0.00 0.00 0.00 0.00 0.00 0.00 0.00 0.00 0.00 0.00 0.00 0.00 0.00 0.00 0.00 0.00 0.00 0.00 0.00 0.00 0.00 0.00 0.00 0.00 0.00
0.01 0.01 0.01 0.01 0.01 0.00 0.02 0.02 0.03 0.02 0.01 0.02 0.02 0.01 0.00 0.00 0.00 0.00 0.00 0.00 0.00 0.00 0.00 0.00 0.00 0.00 0.00 0.00 0.00 0.00 0.00 0.00 0.00 0.00 0.00 0.00 0.00 0.00 0.00 0.00 0.00 0.00 0.00 0.00
0.00 0.01 0.00 0.00 0.00 0.01 0.00 0.01 0.03 0.03 0.02 0.02 0.01 0.01 0.00 0.00 0.00 0.00 0.00 0.00 0.00 0.00 0.00 0.00 0.00 0.00 0.00 0.00 0.00 0.00 0.00 0.00 0.00 0.00 0.00 0.00 0.00 0.00 0.00 0.00 0.00 0.00 0.00 0.00
0.02 0.02 0.01 0.00 0.00 0.00 0.00 0.00 0.00 0.02 0.02 0.01 0.01 0.01 0.00 0.00 0.00 0.00 0.00 0.00 0.00 0.00 0.00 0.00 0.00 0.00 0.00 0.00 0.00 0.00 0.00 0.00 0.00 0.00 0.00 0.00 0.00 0.00 0.00 0.00 0.00 0.00 0.00 0.00
0.01 0.01 0.00 0.00 0.00 0.00 0.00 0.00 0.00 0.00 0.00 0.01 0.00 0.00 0.00 0.00 0.00 0.00 0.00 0.00 0.00 0.00 0.00 0.00 0.00 0.00 0.00 0.00 0.00 0.00 0.00 0.00 0.00 0.00 0.00 0.00 0.00 0.00 0.00 0.00 0.00 0.00 0.00 0.00
0.00 0.00 0.00 0.00 0.00 0.00 0.00 0.00 0.00 0.00 0.00 0.01 0.00 0.00 0.00 0.00 0.00 0.00 0.00 0.00 0.00 0.00 0.00 0.00 0.00 0.00 0.00 0.00 0.00 0.00 0.00 0.00 0.00 0.00 0.00 0.00 0.00 0.00 0.00 0.00 0.00 0.00 0.00 0.00
0.00 0.00 0.00 0.00 0.00 0.00 0.00 0.00 0.00 0.00 0.00 0.00 0.00 0.00 0.00 0.00 0.00 0.00 0.00 0.00 0.00 0.00 0.00 0.00 0.00 0.00 0.00 0.00 0.00 0.00 0.00 0.00 0.00 0.00 0.00 0.00 0.00 0.00 0.00 0.00 0.00 0.00 0.00 0.00
0.00 0.00 0.01 0.00 0.00 0.01 0.00 0.00 0.00 0.00 0.00 0.00 0.00 0.00 0.00 0.00 0.00 0.00 0.00 0.00 0.00 0.00 0.00 0.00 0.00 0.00 0.00 0.00 0.00 0.00 0.00 0.00 0.00 0.00 0.00 0.00 0.00 0.00 0.00 0.00 0.00 0.00 0.00 0.00
0.00 0.01 0.01 0.02 0.01 0.00 0.00 0.00 0.00 0.00 0.00 0.00 0.00 0.00 0.00 0.00 0.00 0.00 0.00 0.00 0.00 0.00 0.00 0.00 0.00 0.00 0.00 0.00 0.00 0.00 0.00 0.00 0.00 0.00 0.00 0.00 0.00 0.00 0.00 0.00 0.00 0.00 0.00 0.00
0.02 0.01 0.02 0.04 0.04 0.02 0.00 0.00 0.00 0.00 0.00 0.00 0.00 0.00 0.00 0.00 0.00 0.00 0.00 0.00 0.00 0.00 0.00 0.00 0.00 0.00 0.00 0.00 0.00 0.00 0.00 0.00 0.00 0.00 0.00 0.00 0.00 0.00 0.00 0.00 0.00 0.00 0.00 0.00
0.03 0.03 0.01 0.02 0.05 0.03 0.00 0.00 0.00 0.01 0.00 0.00 0.00 0.00 0.00 0.00 0.00 0.00 0.00 0.00 0.00 0.00 0.00 0.00 0.00 0.00 0.00 0.00 0.00 0.00 0.00 0.00 0.00 0.00 0.00 0.00 0.00 0.00 0.00 0.00 0.00 0.00 0.00 0.00
0.01 0.01 0.02 0.03 0.04 0.03 0.00 0.00 0.01 0.01 0.00 0.00 0.00 0.00 0.00 0.00 0.00 0.00 0.00 0.00 0.00 0.00 0.00 0.00 0.00 0.00 0.00 0.00 0.00 0.00 0.00 0.00 0.00 0.00 0.00 0.00 0.00 0.00 0.00 0.00 0.00 0.00 0.00 0.00
0.00 0.00 0.01 0.01 0.01 0.00 0.00 0.00 0.01 0.00 0.00 0.00 0.00 0.00 0.00 0.00 0.00 0.00 0.00 0.00 0.00 0.00 0.00 0.00 0.00 0.00 0.00 0.00 0.00 0.00 0.00 0.00 0.00 0.00 0.00 0.00 0.00 0.00 0.00 0.00 0.00 0.00 0.00 0.00
0.00 0.00 0.00 0.00 0.00 0.00 0.00 0.00 0.00 0.00 0.00 0.00 0.00 0.00 0.00 0.00 0.00 0.00 0.00 0.00 0.00 0.00 0.00 0.00 0.00 0.00 0.00 0.00 0.00 0.00 0.00 0.00 0.00 0.00 0.00 0.00 0.00 0.00 0.00 0.00 0.00 0.00 0.00 0.00
0.00 0.00 0.00 0.00 0.00 0.00 0.00 0.00 0.00 0.00 0.00 0.00 0.01 0.00 0.00 0.00 0.00 0.00 0.00 0.00 0.00 0.00 0.00 0.00 0.00 0.00 0.00 0.00 0.00 0.00 0.00 0.00 0.00 0.00 0.00 0.00 0.00 0.00 0.00 0.00 0.00 0.00 0.00 0.00
0.00 0.00 0.00 0.00 0.00 0.00 0.00 0.00 0.00 0.00 0.00 0.00 0.02 0.01 0.00 0.00 0.00 0.00 0.00 0.00 0.00 0.00 0.00 0.00 0.00 0.00 0.00 0.00 0.00 0.00 0.00 0.00 0.00 0.00 0.00 0.00 0.00 0.00 0.00 0.00 0.00 0.00 0.00 0.00
MSLP
1005.23 1004.42 1002.84 1002.98 1002.39 1000.96 1000.18 999.34 998.37 998.55 998.86 999.70 998.53 996.30 996.24 996.26 996.25 996.11 996.28 996.99 996.82 996.86 997.06 997.67 998.97 1000.36 1001.69 1002.98 1004.87 1006.16 1007.17 1007.94 1008.90 1009.60 1010.09 1010.69 1011.42 1012.43 1013.44 1013.97 1014.82 1015.72 1016.35 1017.04
1003.54 1000.60 1001.60 1001.56 1001.46 1001.07 1000.31 999.24 997.72 998.39 998.82 999.10 998.37 995.52 995.38 995.03 994.42 994.84 994.80 994.58 995.06 995.63 996.25 996.60 997.57 999.10 1000.32 1001.74 1003.34 1004.74 1005.52 1006.56 1007.50 1008.23 1008.93 1009.81 1010.69 1011.69 1012.56 1013.46 1014.56 1015.19 1015.95 1016.64
1001.89 996.62 999.88 1000.23 1000.16 1000.08 999.40 998.34 997.85 998.27 998.79 998.40 998.45 994.87 993.97 993.34 992.69 992.93 993.70 993.97 993.62 993.82 994.72 995.90 997.08 998.20 999.50 1000.67 1001.83 1003.26 1004.02 1005.26 1006.57 1007.24 1008.34 1009.44 1010.50 1011.47 1012.20 1012.92 1013.91 1014.80 1015.44 1016.37
1001.68 998.73 999.74 999.58 998.38 999.32 998.50 997.98 998.65 998.67 998.96 997.19 997.72 993.49 992.24 992.38 991.75 991.93 992.61 993.11 993.40 993.36 993.90 995.06 996.19 997.78 998.68 999.44 1001.04 1002.47 1003.35 1004.25 1005.47 1006.23 1006.85 1007.57 1008.36 1009.39 1010.58 1011.84 1012.89 1013.90 1014.77 1015.44
998.64 999.02 999.09 998.64 996.60 999.06 996.56 998.82 998.71 998.80 998.73 998.39 996.23 995.58 990.46 992.32 991.78 992.30 992.53 993.02 993.28 993.69 994.04 994.00 994.97 996.39 997.78 999.07 1000.13 1001.52 1002.61 1003.72 1004.60 1005.18 1005.65 1006.76 1007.86 1008.90 1010.01 1011.62 1012.65 1013.78 1014.59 1014.80
999.30 999.01 999.12 998.36 998.02 998.02 997.92 998.51 999.46 999.65 999.38 998.02 993.79 995.61 992.50 990.76 990.91 991.21 992.43 993.88 994.99 995.04 995.18 995.08 994.86 995.35 996.86 998.23 999.59 1000.97 1002.06 1002.93 1003.92 1004.68 1005.00 1005.70 1006.50 1007.53 1008.87 1010.22 1011.76 1012.96 1014.12 1014.46
1000.39 999.18 998.72 998.97 998.52 998.36 998.28 998.66 999.06 999.58 998.53 996.02 994.61 994.97 991.76 990.78 991.86 992.84 994.38 995.18 995.53 995.71 995.64 995.44 995.12 995.36 996.35 997.58 998.90 1000.36 1001.72 1002.55 1003.55 1004.68 1005.38 1005.94 1006.23 1006.82 1007.80 1009.32 1010.44 1012.30 1013.56 1014.80
998.88 997.63 996.99 996.71 996.98 996.44 996.99 997.38 997.18 996.04 996.02 995.12 994.68 993.02 990.74 992.80 992.24 993.52 995.25 995.73 996.19 996.11 996.11 995.90 995.79 996.24 996.97 997.87 998.86 1000.04 1001.25 1002.26 1003.25 1004.28 1004.96 1005.78 1006.13 1006.99 1007.86 1008.95 1009.62 1011.25 1012.46 1014.18
998.29 996.40 995.38 995.33 995.49 996.68 995.58 995.79 994.91 995.90 995.25 994.83 992.47 991.93 991.50 993.02 994.08 994.60 995.16 995.88 996.24 996.25 996.46 996.63 996.68 997.00 997.74 998.61 999.37 1000.07 1001.06 1002.00 1002.79 1003.94 1004.80 1005.44 1005.80 1006.62 1007.25 1008.42 1009.70 1011.08 1012.60 1013.41
998.41 997.05 994.90 994.59 995.69 995.50 994.80 994.65 996.02 996.14 995.09 993.92 992.06 990.68 990.36 992.89 994.30 995.00 995.46 995.48 995.92 996.15 996.43 996.86 997.06 997.60 998.04 998.98 999.73 1000.40 1001.12 1001.86 1002.77 1003.83 1004.58 1005.38 1005.82 1006.88 1007.49 1008.67 1010.18 1010.95 1012.20 1013.56
1000.74 999.65 997.64 996.38 995.66 994.98 995.30 994.77 994.84 994.81 995.03 993.38 992.03 990.36 990.40 991.46 993.78 994.80 995.96 995.96 995.62 995.98 996.28 996.61 997.34 997.83 998.33 999.08 999.69 1000.44 1001.25 1001.87 1002.48 1003.42 1004.30 1005.22 1006.30 1007.10 1007.45 1008.63 1010.10 1011.24 1012.42 1013.28
1003.10 1002.06 1000.12 998.37 997.14 997.08 995.82 993.84 994.03 994.50 994.07 993.70 993.18 991.37 992.12 992.47 993.76 994.57 995.47 996.20 996.41 996.25 996.68 997.02 997.47 998.08 998.45 999.14 1000.06 1000.50 1001.02 1001.64 1002.52 1003.35 1004.06 1004.86 1006.23 1007.97 1009.07 1009.47 1010.20 1011.45 1012.61 1013.49
1004.38 1003.59 1001.72 998.95 997.88 997.78 997.75 996.98 997.11 996.00 994.65 993.48 993.43 991.62 993.25 993.46 993.89 994.51 994.66 995.36 996.20 996.85 997.02 997.34 997.42 997.82 998.37 998.95 999.74 1000.43 1001.20 1001.76 1003.12 1003.53 1004.35 1005.10 1006.76 1008.28 1008.80 1009.67 1010.34 1011.45 1012.60 1013.25
1004.84 1003.76 1003.53 1001.99 1000.83 1000.80 999.96 999.37 998.77 998.70 997.98 997.06 994.99 993.91 993.76 994.23 993.53 994.17 994.54 994.98 995.37 996.42 996.64 996.99 997.48 997.61 998.07 998.69 999.59 1000.07 1000.73 1001.60 1002.73 1003.81 1004.86 1005.79 1007.04 1007.50 1008.49 1009.10 1010.03 1010.78 1012.02 1012.86
1004.05 1003.51 1003.06 1001.88 1001.12 1000.82 1000.30 999.10 998.35 998.27 997.45 997.45 996.43 996.02 996.04 994.81 994.79 994.23 994.59 994.96 995.47 996.39 996.95 997.03 997.42 997.68 998.45 998.96 999.24 999.92 1000.63 1001.56 1002.57 1003.70 1004.66 1005.73 1006.83 1007.74 1008.15 1008.73 1009.33 1010.05 1011.41 1012.47
1003.78 1003.21 1002.28 1001.15 1000.54 999.77 999.29 998.94 997.57 996.31 996.56 996.72 996.37 996.05 996.65 997.11 996.34 995.84 995.56 995.68 996.07 996.93 997.30 997.26 997.43 997.65 998.76 999.22 999.51 999.90 1000.70 1001.98 1002.65 1002.96 1004.10 1005.34 1006.30 1007.50 1008.55 1008.88 1009.80 1010.36 1011.28 1012.27
1004.24 1003.15 1002.12 1000.47 999.80 998.51 997.76 997.04 996.45 995.18 995.66 996.08 995.60 995.83 995.16 996.54 995.44 995.58 994.68 996.16 996.50 996.95 996.93 997.71 998.02 998.22 998.30 998.77 999.20 999.79 1000.41 1000.72 1002.27 1002.54 1003.58 1004.23 1005.51 1006.69 1008.04 1008.96 1009.64 1010.19 1010.92 1012.02
1002.81 1002.78 1002.36 1000.41 999.47 997.14 995.66 995.52 995.07 995.58 995.09 995.09 995.18 994.01 995.88 995.67 995.48 995.32 993.80 996.55 997.28 997.11 997.02 997.88 998.15 998.77 998.93 998.28 998.97 999.77 1000.01 1000.28 1001.46 1002.05 1002.61 1004.26 1004.72 1005.66 1007.00 1008.26 1009.33 1009.68 1010.55 1011.34
1000.83 1002.07 1001.66 1000.54 998.06 995.55 994.66 994.15 994.56 994.56 993.49 992.84 992.38 994.80 995.25 995.09 994.78 995.32 995.92 996.77 997.15 997.67 997.22 997.86 998.42 998.86 999.40 998.62 998.37 999.22 999.64 1000.04 1000.72 1001.18 1002.02 1002.88 1004.21 1005.17 1005.90 1006.85 1008.53 1009.51 1010.16 1011.02
999.32 1000.30 1001.05 999.84 998.04 996.11 995.35 995.26 995.53 994.63 993.31 992.93 992.36 993.73 994.64 994.03 995.11 995.36 997.00 997.12 996.75 997.22 998.30 997.96 998.62 998.99 999.48 998.88 998.40 999.08 999.37 1000.34 1000.26 1000.86 1001.48 1002.60 1004.05 1004.66 1005.61 1006.72 1007.41 1008.92 1010.06 1010.74
999.83 999.78 999.62 998.26 998.03 997.04 998.06 997.81 996.04 995.66 995.24 994.21 993.54 993.56 994.16 994.45 993.62 995.92 997.28 996.56 996.52 998.84 998.93 998.21 998.87 999.09 999.26 999.25 998.99 999.28 999.44 999.58 1000.29 1001.23 1001.68 1002.45 1003.37 1004.23 1005.53 1006.74 1007.32 1008.57 1009.59 1010.43
1000.91 1000.30 999.77 999.24 998.17 998.86 999.39 998.39 997.84 997.39 996.29 995.31 994.57 994.20 994.05 994.72 995.43 996.52 996.82 996.28 997.38 998.56 998.65 998.73 998.87 999.32 999.40 999.08 999.12 999.66 999.92 1000.66 1001.03 1001.50 1002.04 1002.86 1003.57 1004.47 1005.30 1006.46 1007.85 1008.51 1009.28 1010.32
1000.77 1001.16 1001.30 1001.30 1000.90 1001.03 1001.04 1000.60 1000.05 998.88 997.34 996.35 995.66 995.08 994.92 995.41 996.02 996.66 996.49 996.49 997.78 998.34 998.45 998.54 999.04 999.37 999.32 999.32 999.98 1000.71 1001.30 1001.62 1002.40 1002.47 1002.95 1003.41 1004.16 1004.75 1005.66 1006.62 1007.61 1008.43 1009.04 1009.62
1000.45 1000.69 1000.79 1000.65 1000.06 1000.08 1000.36 1000.54 1000.02 999.24 998.05 997.34 996.54 995.88 995.68 995.73 996.17 996.16 996.64 997.55 998.10 998.33 998.83 998.69 998.90 999.41 999.44 1000.76 1001.66 1001.74 1002.98 1002.59 1002.92 1003.32 1003.72 1004.16 1004.68 1005.29 1005.91 1006.66 1007.34 1007.86 1008.58 1009.39
1000.60 1000.57 999.91 999.73 999.15 999.10 999.74 999.78 999.59 999.03 998.38 997.55 997.09 996.45 996.05 996.22 996.50 996.78 997.27 997.67 997.95 997.78 998.28 998.73 999.51 999.93 1000.70 1001.61 1002.30 1003.00 1003.38 1002.84 1003.04 1003.66 1004.36 1004.78 1005.24 1005.69 1006.21 1006.74 1007.15 1007.67 1008.12 1008.37
999.75 999.30 999.38 999.04 999.23 999.44 999.26 999.25 999.18 998.89 998.44 998.16 997.32 996.90 997.04 997.01 996.99 997.16 997.36 997.80 997.88 998.32 999.22 999.89 1000.16 1000.47 1000.97 1001.61 1002.55 1003.32 1003.80 1003.57 1003.31 1003.74 1004.26 1004.74 1005.30 1006.00 1006.41 1006.78 1007.32 1007.85 1008.29 1009.02
Thickness
5659 5659 5658 5663 5676 5692 5693 5691 5694 5701 5706 5687 5695 5719 5723 5727 5726 5727 5727 5721 5727 5731 5740 5738 5731 5722 5714 5706 5691 5681 5674 5669 5661 5656 5651 5647 5641 5634 5625 5622 5617 5611 5606 5600
5656 5672 5680 5673 5674 5669 5671 5674 5685 5691 5694 5681 5685 5707 5721 5727 5730 5732 5733 5737 5735 5733 5731 5733 5731 5721 5713 5703 5693 5682 5679 5671 5664 5658 5652 5645 5638 5630 5623 5617 5610 5606 5601 5595
5650 5713 5684 5671 5666 5660 5667 5670 5680 5676 5676 5681 5666 5693 5716 5732 5738 5739 5735 5736 5742 5741 5733 5726 5718 5715 5707 5699 5694 5684 5680 5671 5661 5655 5647 5638 5630 5623 5618 5613 5606 5600 5595 5587
5636 5683 5662 5660 5669 5658 5655 5686 5668 5662 5650 5655 5672 5677 5717 5723 5728 5732 5731 5731 5731 5734 5732 5724 5717 5704 5703 5700 5688 5678 5673 5667 5658 5654 5649 5643 5638 5630 5621 5611 5604 5598 5590 5584
5655 5654 5646 5647 5676 5653 5667 5658 5654 5651 5642 5640 5666 5636 5715 5713 5707 5707 5717 5719 5724 5723 5720 5720 5716 5707 5699 5690 5684 5674 5666 5658 5654 5651 5649 5641 5632 5625 5616 5603 5596 5589 5582 5579
5641 5647 5640 5646 5655 5653 5660 5642 5627 5625 5622 5598 5681 5634 5677 5713 5713 5715 5706 5693 5690 5694 5694 5697 5704 5705 5693 5684 5676 5666 5660 5655 5648 5644 5644 5640 5634 5626 5615 5604 5593 5586 5575 5572
5603 5614 5628 5624 5621 5631 5630 5617 5590 5584 5588 5605 5669 5623 5678 5713 5694 5688 5675 5669 5670 5674 5676 5680 5685 5687 5683 5675 5667 5657 5649 5644 5638 5630 5627 5625 5626 5622 5612 5600 5593 5578 5569 5559
5597 5603 5624 5635 5621 5628 5620 5616 5599 5596 5602 5617 5644 5622 5677 5670 5682 5677 5660 5656 5654 5655 5659 5664 5668 5667 5663 5659 5654 5647 5639 5634 5628 5622 5618 5614 5611 5606 5600 5591 5586 5575 5566 5552
5588 5598 5636 5629 5630 5612 5623 5599 5643 5612 5618 5596 5644 5649 5670 5655 5649 5649 5648 5646 5643 5644 5643 5644 5647 5647 5644 5640 5636 5632 5627 5622 5619 5611 5606 5603 5602 5598 5594 5584 5572 5562 5550 5546
5582 5576 5622 5621 5606 5612 5616 5628 5589 5588 5584 5588 5622 5645 5652 5635 5630 5630 5631 5635 5633 5633 5633 5631 5632 5630 5631 5625 5621 5618 5615 5610 5605 5598 5595 5589 5588 5582 5577 5567 5555 5549 5541 5531
5537 5548 5570 5586 5581 5603 5597 5597 5596 5605 5589 5594 5604 5630 5662 5647 5624 5619 5611 5616 5623 5622 5621 5621 5617 5616 5616 5612 5610 5605 5600 5598 5595 5589 5584 5577 5570 5564 5563 5554 5542 5534 5525 5517
5495 5499 5531 5546 5567 5559 5590 5607 5605 5587 5591 5591 5595 5608 5621 5622 5614 5608 5602 5598 5600 5604 5600 5601 5599 5596 5599 5598 5592 5592 5591 5588 5583 5577 5574 5569 5558 5543 5534 5532 5527 5518 5511 5503
5470 5481 5501 5543 5561 5551 5538 5552 5544 5530 5557 5581 5575 5599 5597 5599 5598 5596 5597 5595 5587 5583 5583 5582 5586 5585 5582 5581 5578 5576 5572 5572 5561 5561 5556 5551 5537 5525 5523 5518 5513 5505 5497 5492
5452 5460 5462 5481 5505 5487 5502 5506 5509 5505 5520 5533 5551 5576 5568 5577 5585 5581 5583 5583 5583 5576 5575 5573 5573 5576 5573 5570 5563 5562 5560 5554 5548 5542 5534 5528 5519 5517 5512 5510 5504 5498 5489 5479
5448 5444 5454 5466 5486 5478 5487 5510 5519 5504 5509 5509 5539 5532 5525 5556 5558 5563 5567 5565 5565 5559 5557 5561 5561 5563 5559 5557 5556 5552 5547 5542 5536 5528 5522 5513 5506 5500 5501 5499 5493 5486 5479 5472
5440 5433 5452 5456 5478 5483 5485 5492 5513 5521 5513 5507 5518 5529 5519 5517 5519 5528 5535 5542 5545 5538 5538 5548 5550 5551 5544 5542 5542 5543 5536 5527 5522 5522 5514 5505 5499 5491 5483 5484 5479 5475 5471 5464
5405 5424 5439 5445 5474 5480 5465 5496 5501 5517 5521 5517 5511 5517 5525 5511 5522 5525 5536 5530 5530 5528 5532 5530 5532 5535 5536 5534 5531 5527 5523 5523 5508 5513 5506 5503 5493 5486 5478 5471 5465 5466 5464 5457
5402 5407 5414 5431 5453 5441 5497 5501 5500 5499 5512 5506 5507 5521 5504 5509 5516 5520 5531 5516 5513 5518 5521 5519 5522 5518 5519 5528 5521 5513 5515 5514 5502 5499 5498 5482 5482 5479 5470 5460 5454 5453 5449 5445
5426 5397 5392 5410 5454 5483 5493 5502 5497 5498 5514 5514 5519 5504 5505 5507 5507 5503 5507 5508 5505 5503 5507 5508 5506 5504 5503 5510 5511 5507 5504 5501 5496 5492 5488 5483 5469 5463 5461 5459 5445 5439 5435 5430
5433 5412 5391 5418 5432 5450 5476 5476 5472 5487 5500 5505 5518 5508 5502 5503 5501 5494 5489 5491 5493 5497 5493 5495 5494 5494 5493 5496 5498 5498 5496 5485 5487 5484 5480 5471 5458 5455 5447 5439 5437 5427 5419 5415
5411 5410 5409 5436 5432 5459 5417 5422 5457 5462 5472 5481 5495 5498 5493 5496 5505 5486 5477 5480 5483 5476 5478 5485 5485 5485 5483 5482 5483 5483 5483 5482 5477 5468 5464 5457 5449 5440 5430 5421 5420 5412 5407 5403
5379 5392 5396 5402 5433 5434 5401 5417 5437 5432 5447 5463 5475 5482 5484 5479 5477 5472 5472 5475 5473 5475 5475 5476 5476 5473 5471 5475 5473 5470 5468 5461 5459 5454 5447 5439 5430 5422 5416 5408 5399 5398 5395 5389
5381 5379 5371 5374 5376 5372 5374 5381 5387 5403 5423 5443 5453 5463 5469 5468 5467 5467 5467 5469 5465 5468 5473 5468 5467 5464 5462 5462 5457 5448 5445 5442 5432 5430 5423 5417 5410 5403 5396 5390 5385 5383 5383 5381
5387 5383 5375 5377 5393 5393 5377 5377 5387 5399 5412 5421 5438 5450 5456 5458 5459 5460 5459 5456 5456 5458 5453 5458 5460 5456 5452 5438 5429 5431 5418 5422 5418 5411 5404 5398 5390 5382 5378 5375 5372 5372 5371 5368
5375 5373 5379 5380 5397 5400 5388 5390 5392 5399 5405 5416 5426 5437 5446 5448 5448 5449 5448 5449 5451 5456 5452 5451 5445 5444 5436 5426 5418 5411 5407 5411 5406 5399 5390 5384 5374 5365 5363 5362 5361 5361 5362 5365
5378 5376 5371 5376 5383 5381 5389 5392 5393 5396 5402 5404 5416 5426 5428 5434 5438 5439 5441 5442 5446 5445 5439 5435 5432 5431 5429 5423 5411 5402 5397 5399 5400 5392 5386 5379 5370 5359 5355 5352 5349 5347 5347 5345